Showing default

UM5-EOSAT, 60555

Orbit data source: Space-Track

UM5-EOSAT, 60555 is a Moroccan payload satellite in SSO that was launched on Fri, 16 Aug 2024 UTC via an FALCON 9 launch vehicle from the Air Force Western Test Range (AFWTR). Payload-class satellites include a variety of spacecraft equipped with specific instruments for various scientific and technological missions. These include communications satellites like Starlink; space stations such as the ISS; scientific satellites like the Hubble; Earth observation satellites from companies like Planet Labs, Umbra, and HawkEye 360; GPS; miniature CubeSats for education and research; and military/defense satellites.

Loading next visibility...
Identifier
60555, 2024-149CR
Orbit
SSO
Country
Flag of MAMA
Related business
Manufacturer
UM5R
Mission
Operational Amateur Imaging
Bus & Motor
CUBESAT 3U, Unknown motor
Mass
5 kg wet, 5 kg dry
Launch date (UTC)
2024-08-16 (1 year ago)
Launch vehicle
FALCON 9
Launch site
Air Force Western Test Range (AFWTR)
Object type
Payload
Rocket body
Debris
Shape & HBR
Box, 0.1 m
Radar Cross Section
0.080 m², Small (<0.1 m²)

Expand to show TLE details & history
Last TLE update: 9 hours ago

TLE from 9 hours ago
0 UM5-EOSAT
1 60555U 24149CR  25290.91370489  .00006727  00000-0  55498-3 0  9996
2 60555  97.7119   7.3067 0007799 157.7230 202.4333 14.99316288 63880
Epoch: 2025-10-17T21:55Z
TLE epoch observation values (Epoch: 2025-10-17T21:55:44.102Z)
Latitude
-0.00005°
Longitude
11.7207°
Altitude
577.071 km
Speed
7.569 km/s
True Right ascension
00h 29m 13s
True Declination
0° 00' 00"
Sunlit
Object was in full shadow at epoch
Visualization orbit readout
Latitude
Unknown
Longitude
Unknown
Altitude
Unknown
Speed
Unknown
Apparent Right ascension
Unknown
Apparent Declination
Unknown
Sunlit
N/A
Visualization observer readout
Local Sidereal Time
02:03:15
Azimuth
Unknown
Elevation
Unknown
Doppler factor
Unknown
Orbital elements
Apogee altitude
571.43 km
Perigee altitude
560.599 km
Semi-major axis
6,944.151 km
Eccentricity
0.00078
Inclination
97.7119°
RAAN
7.3067°
Arg. of periapsis
157.723°
True anomaly
202.39923°
Mean anomaly
202.4333°
Eccentric anomaly
202.41626°
Mean motion
3.75072 °/min
Orbital period
95.98 mins
BSTAR
0.00055498
Loading maneuver chart data...
Computing Atmospheric mass density...
Loading historical data...
Loading historical data...
Loading historical data...
Loading historical data...
Loading historical data...
Loading historical data...
Loading historical data...

Documentation

Showing up to 5 results
|